Погода Ремонтное

Погода Ремонтное : погода сейчас, прогноз погоды и архив. Всё, что Вы хотите узнать о погоде Ремонтное!

Поиск расширенной информации на нашем сайте:

Другие новости

Новости СМИ2

Главная страница сайта

Новости сайта

03.07.2017

Напоминаем, что на нашем специализированном сайте Метеоцентр.Азия вы можете получить высокодетализированные автоматические прогнозы погоды по пунктам России, СНГ и мира в авиационном формате (включающие направление и скорость ветра, видимость, явления погоды, количество и форму облачности, нижнюю и верхнюю границу облачности).


Погода Ремонтное - сегодня

Время (UTC), дата Ветер
(°,м/с) 
Видим.   Явления Облачность Т
(°С)
Тd
(°С)
f(%) Тe
(°С)
Pmin
(гПа)
dP
(гПа)
Po
(мм)
O2
(г/м3)
Тmin Tmax R s Состояние
почвы
15 17.10.17 270 (З) 10 км    10/4 600 м средняя, верхняя 
[Sc diur, vesp|Ac lent|Ci]
+11.3 +6.2 71 +12  1016.6  -0.2  753  290    +12.7       
18 17.10.17 290 (З) 10 км    10/10 600 м 
[Sc diur, vesp]
+11.6 +7.9 78 +11  1017.3  0.7  753  290           
21 17.10.17 290 (З) 10 км    10/10 600 м 
[Sc diur, vesp]
+10.8 +7.5 80 +10  1018.8  1.4  754  291           
00 18.10.17 290 (З) 4000 м  дымка  10/10 600 м 
[Sc diur, vesp]
+9.3 +7 86 +9  1020.2  1.3  755  293           
03 18.10.17 300 (СЗ) 4000 м  дымка  3/0 средняя 
[Ac lent]
+8.9 +6.8 87 +9  1022.2  757  294  +8.8         
06 18.10.17 330 (СЗ) 4000 м  дымка  10/10 300 м 
[St]
+9.8 +7.7 87 +10  1024.3  2.1  758  294  +8.1         
09 18.10.17 270 (З) 10 км    9/4 300 м верхняя 
[St|Ci]
+12.3 +8.3 77 +14  1024.1  -0.1  758  291           
12 18.10.17 290 (З) 10 км    9/0 верхняя 
[Ci]
+14.8 +6.8 59 +15  1023.2  -0.8  758  289           
15 18.10.17 220 (ЮЗ) 4000 м  дымка  10/3 300 м верхняя 
[St|Ci]
+10.1 +6.9 80 +10  1023.4  0.1  758  293    +14.9       
18 18.10.17 170 (Ю) 4000 м  дымка  10/0 верхняя 
[Ci]
+6.7 +4.9 88 +8  1023.5  -0.1  758  297           
21 18.10.17 190 (Ю) 4000 м  дымка  10/0 верхняя 
[Ci]
+8.5 +5.4 81 +10  1022.6  -0.9  757  295           
00 19.10.17 240 (ЮЗ) 4000 м  дымка  10/10 300 м 
[St]
+10.6 +9.4 92 +11  1022  -0.4  757  292           
03 19.10.17 230 (ЮЗ) 0500 м  туман  ?/?  
+10 +8.8 92 +10  1021.8  -0.3  757  293  +5.6        влажная 
06 19.10.17 280 (З) 1000 м  дымка{туман}  10/10 300 м 
[St]
+11.8 +10.6 92 +13  1022.2  0.5  757  290  +9.8         
09 19.10.17 240 (ЮЗ) 4000 м  дымка  9/9 600 м кучево-дожд. 
[Cb cap]
+15.1 +11.2 78 +18  1021.2  -0.8  756  287           
12 19.10.17 240 (ЮЗ) 10 км    8/8 600 м 
[Sc diur, vesp]
+16.3 +10.5 69 +19  1019.8  -1.4  755  285           
15 19.10.17 200 (Ю) 10 км    3/3 600 м 
[Sc diur, vesp]
+13.5 +10 79 +15  1019.6  -0.3  755  288    +16.6       
18 19.10.17 240 (ЮЗ) 10 км    ясно 
+11.6 +8.6 82 +12  1019.3  -0.4  755  290           
21 19.10.17 250 (З) 4000 м  дымка  ясно 
+10.1 +8 87 +10  1018.9  -0.4  755  292           
00 20.10.17 130 (ЮВ) 4000 м  дымка  ясно 
+7.6 +6.1 90 +9  1018.5  -0.5  754  295           
03 20.10.17 230 (ЮЗ) 4000 м  дымка  10/10 300 м 
[Sc]
+10.8 +8.8 87 +12  1018.5  0.1  754  291  +7.6         
06 20.10.17 270 (З) 4000 м  дымка  10/10 300 м 
[Sc]
+12.4 +9.7 84 +14  1018.9  0.5  755  289           
09 20.10.17 290 (З) 4000 м  дымка  10/10 300 м 
[Sc]
+13.8 +9.9 77 +15  1018.8  -0.1  755  288           
12 20.10.17 340 (С) 4000 м  дымка  10/10 300 м 
[Sc]
+14.8 +11.1 78 +18  1018.5  -0.2  754  286           
15 20.10.17 340 (С) 2000 м  дымка  10/10 300 м 
[Sc]
+13.6 +11.3 86 +18  1018.8  0.3  755  287    +14.8       
Время (UTC), дата Ветер
(°,м/с) 
Видим.   Явления Облачность Т
(°С)
Тd
(°С)
f(%) Тe
(°С)
Pmin
(гПа)
dP
(гПа)
Po
(мм)
O2
(г/м3)
Тmin Tmax R s Состояние
почвы

Для получения пояснительной информации подведите курсор к названию столбца.

ПОГОДА Ремонтное - архив

Всё, что Вы хотите узнать о погоде Ремонтное - удобно и подробно!

Выберите нужную дату (начиная с 1 января 2015* года) и нажмите кнопку "Найти".
Будут отображены архивные сводки погоды по пункту Ремонтное, начиная с указанной даты.


Отображать данные в формате CSV (для использования в таблицах Excel)


Внимание! Наш архив погоды предназначен исключительно для личного некоммерческого использования в познавательных целях. Если Вам необходимы официальные справки о состоянии погоды (для производственных, юридических, коммерческих и т.п. целей), обращайтесь в органы Росгидромета.

*Примечание: данная дата относится к архиву по метеостанциям СССР (Россия, СНГ, Балтия).
Архив по метеостанциям Зарубежной Европы и Азии (кроме Китая) хранится 10 дней, по другим регионам земного шара (Китай, Африка, Америка, Австралия, Океания) - 1 день.

Ремонтное - район местоположения метеостанции


Название, широта, долгота, высота метеостанции:
Ремонтное 46.6°ш. 43.7°д. 106 м над ур. моря [Российская Федерация]

Дополнительная информация

В oтличие oт бoльшинства пoгoдных сайтoв мы публикуем пoдрoбную метеoинфoрмацию в детальнoм прoфессиoнальнoм фoрмате.

Характеристики температуры и влажнoсти вoздуха измеряются на высoте 2 м в тени вдали oт зданий и деревьев.
Скoрoсть ветра измеряется на высoте 10 м (на урoвне рoста челoвека скoрoсть ветра ниже в 1.5-2 раза). Если метеoстанция нахoдится в гoрoде или в лесу, тo скoрoсть ветра занижена на 2-4 м/с пo сравнению с oткрытым местoм. Скoрoсть ветра над акватoриями крупных рек и oзёр, а также на вершинах хoлмoв на 2-5 м/с выше, чем в oбычных услoвиях.
Атмoсфернoе давление в разных тoчках местнoсти мoжет значительнo oтличаться oт давления на метеoстанции, в зависимoсти oт услoвий рельефа (при пoдъёме на 10 м давление пoнижается примернo на 1 мм рт.ст.).